Location: Home
(42.5358°N, 72.7383°W)
Time: 05:37:53
(UTC-04:00)

COSMOS 2251 DEB - Pass Details

Date: 02 July 2022
Orbit: 769 x 1233 km, 74.1° (Epoch: 15 August)

Event Time Altitude Azimuth Distance (km) Brightness Sun altitude
Exits shadow 00:33:36 13° 104° (ESE) 2,419 ? -24.2°
Maximum altitude 00:35:03 14° 89° (E) 2,388 ? -24.3°
Drops below altitude 10° 00:38:14 10° 59° (ENE) 2,782 ? -24.3°
Sets 00:42:16 0° 37° (NE) 3,845 ? -24.4°
